Location: Deurze
(52.9838°N, 6.6090°E)
Time: 19:40:06
(UTC+00:00)

IRS-1C Rocket - Pass Details

Date: 11 March 2026
Orbit: 800 x 804 km, 98.7° (Epoch: 20 April)

Event Time Altitude Azimuth Distance (km) Brightness Sun altitude
Exits shadow 20:36:43 59° 32° (NNE) 923 4.3 -27.4°
Drops below altitude 10° 20:41:19 10° 349° (N) 2,391 7.1 -28.0°
Sets 20:43:40 0° 347° (NNW) 3,326 8.0 -28.3°
